Weather reports worldwide

Advertisment
Ontario, or, United States of America (2074747): temperature & dewpoint: 17.07.2019 14:00:00 - 23.07.2019 14:00:00 (MDT)Ontario, or, United States of America (2074747): wind speed & gusts: 17.07.2019 14:00:00 - 23.07.2019 14:00:00 (MDT)Ontario, or, United States of America (2074747): wind direction: 17.07.2019 14:00:00 - 23.07.2019 14:00:00 (MDT)Ontario, or, United States of America (2074747): reduced air pressure: 17.07.2019 14:00:00 - 23.07.2019 14:00:00 (MDT)Ontario, or, United States of America (2074747): visibility: 17.07.2019 14:00:00 - 23.07.2019 14:00:00 (MDT)
Date & Time tt [°C] td [°C] ff [km/h] ff [kn] fx [km/h] fx [kn] dd ppp [hPa] vv [km]
23.07.2019 14:00:00 29,4 13,9 5 3 - - - 1015,7 16
23.07.2019 13:00:00 26,7 13,9 0 0 - - N 1016,4 16
23.07.2019 12:00:00 26,7 11,7 5 3 - - SE 1016,5 16
23.07.2019 11:00:00 24,4 14,4 0 0 - - N 1016,5 16
23.07.2019 10:00:00 24,4 11,7 5 3 - - E 1015,7 16
23.07.2019 09:00:00 22,2 13,9 11 6 - - W 1015,9 16
23.07.2019 08:00:00 21,7 11,7 0 0 - - N 1014,6 16
23.07.2019 07:00:00 19,4 11,1 11 6 - - W 1013,9 16
23.07.2019 06:00:00 20,0 11,1 8 4 - - SW 1013,3 16
23.07.2019 05:00:00 20,0 11,7 0 0 - - N 1012,8 16
23.07.2019 04:00:00 21,1 11,7 13 7 - - WSW 1012,8 16
23.07.2019 03:00:00 21,7 11,7 9 5 - - W 1012,5 16
23.07.2019 02:00:00 22,8 12,8 9 5 - - S 1012,5 16
23.07.2019 01:00:00 25,0 11,1 5 3 - - SSE 1011,9 16
23.07.2019 00:00:00 26,7 10,6 8 4 - - WSW 1011,2 16
22.07.2019 23:00:00 25,6 13,3 18 10 - - NNW 1011,1 16
22.07.2019 22:00:00 28,9 14,4 9 5 - - WSW 1010,4 16
22.07.2019 21:00:00 33,9 11,7 0 0 - - N 1009,8 16
22.07.2019 20:00:00 38,3 8,9 0 0 - - N 1009,5 16
22.07.2019 19:00:00 38,9 8,9 9 5 - - N 1009,4 16
22.07.2019 18:00:00 38,9 10,0 8 4 - - ENE 1010,0 16
22.07.2019 17:00:00 37,8 8,9 9 5 - - SE 1010,6 16
22.07.2019 16:00:00 37,2 8,9 8 4 - - ESE 1011,5 16
22.07.2019 15:00:00 36,1 7,8 0 0 - - N 1012,2 16
22.07.2019 14:00:00 33,9 8,3 5 3 - - - 1012,6 16
22.07.2019 13:00:00 32,8 10,6 5 3 - - SE 1012,6 16
22.07.2019 12:00:00 30,0 12,8 0 0 - - N 1012,9 16
22.07.2019 11:00:00 28,9 10,0 5 3 - - E 1012,8 16
22.07.2019 10:00:00 27,2 12,2 0 0 - - N 1012,5 16
22.07.2019 09:00:00 23,9 12,8 5 3 - - S 1012,2 16
22.07.2019 08:00:00 20,0 13,9 0 0 - - N 1011,2 16
22.07.2019 07:00:00 20,6 10,6 8 4 - - WNW 1010,6 16
22.07.2019 06:00:00 20,0 12,2 5 3 - - SSW 1010,1 16
22.07.2019 05:00:00 20,0 10,6 8 4 - - WSW 1009,9 16
22.07.2019 04:00:00 21,1 9,4 11 6 - - WSW 1010,0 16
22.07.2019 03:00:00 20,6 10,0 9 5 - - WSW 1009,9 16
22.07.2019 02:00:00 21,7 9,4 9 5 - - W 1010,2 16
22.07.2019 01:00:00 22,8 10,0 9 5 - - WSW 1010,4 16
22.07.2019 00:00:00 23,3 10,6 11 6 - - WSW 1010,3 16
21.07.2019 23:00:00 24,4 11,7 5 3 - - W 1010,0 16
21.07.2019 22:00:00 26,7 12,2 8 4 - - WNW 1009,8 16
21.07.2019 21:00:00 30,6 15,0 5 3 - - W 1009,8 16
21.07.2019 20:00:00 36,1 6,1 8 4 - - NW 1010,0 16
21.07.2019 19:00:00 36,1 6,1 5 3 - - W 1010,7 16
21.07.2019 18:00:00 35,6 6,7 9 5 - - W 1011,4 16
21.07.2019 17:00:00 35,6 6,1 8 4 - - SE 1012,3 16
21.07.2019 16:00:00 34,4 3,9 0 0 - - N 1013,1 16
21.07.2019 15:00:00 32,8 4,4 0 0 - - N 1013,7 16
21.07.2019 14:00:00 31,1 3,9 11 6 - - - 1014,5 16
21.07.2019 13:00:00 29,4 1,1 0 0 - - N 1015,2 16
21.07.2019 12:00:00 28,9 3,3 11 6 - - N 1015,3 16
21.07.2019 11:00:00 26,7 5,0 5 3 - - - 1015,8 16
21.07.2019 10:00:00 23,9 3,3 8 4 - - N 1016,3 16
21.07.2019 09:00:00 20,6 3,9 5 3 - - WNW 1016,0 16
21.07.2019 08:00:00 16,1 5,0 0 0 - - N 1016,1 16
21.07.2019 07:00:00 13,9 3,9 0 0 - - N 1015,6 16
21.07.2019 06:00:00 13,9 3,9 5 3 - - SW 1014,7 16
21.07.2019 05:00:00 14,4 3,9 0 0 - - N 1014,4 16
21.07.2019 04:00:00 15,6 5,0 0 0 - - N 1013,9 16
21.07.2019 03:00:00 17,8 3,3 8 4 - - NW 1014,1 16
21.07.2019 02:00:00 18,3 2,8 5 3 - - SSE 1013,6 16
21.07.2019 01:00:00 20,0 1,1 15 8 - - NNW 1013,6 16
21.07.2019 00:00:00 22,2 1,7 13 7 - - N 1013,3 16
20.07.2019 23:00:00 21,7 1,7 9 5 - - NNW 1013,3 16
20.07.2019 22:00:00 22,2 5,0 0 0 - - N 1012,8 16
20.07.2019 21:00:00 28,9 2,2 8 4 - - N 1012,1 16
20.07.2019 20:00:00 31,1 0,0 15 8 - - N 1012,1 16
20.07.2019 19:00:00 32,2 -1,1 15 8 - - N 1012,3 16
20.07.2019 18:00:00 32,8 -0,6 16 9 - - NNW 1012,6 16
20.07.2019 17:00:00 32,2 0,6 15 8 - - NNE 1012,7 16
20.07.2019 16:00:00 31,7 1,1 11 6 - - NNE 1013,2 16
20.07.2019 15:00:00 30,6 2,8 13 7 - - NNE 1013,7 16
20.07.2019 14:00:00 29,4 3,3 5 3 - - - 1014,4 16
20.07.2019 13:00:00 28,3 3,3 8 4 - - - 1014,9 16
20.07.2019 12:00:00 26,7 3,9 8 4 - - - 1015,4 16
20.07.2019 11:00:00 23,9 3,9 13 7 - - NNE 1015,6 16
20.07.2019 10:00:00 22,8 3,3 9 5 - - NNE 1016,1 16
20.07.2019 09:00:00 18,9 5,0 8 4 - - WSW 1015,9 16
20.07.2019 08:00:00 17,8 2,8 5 3 - - NNW 1015,4 16
20.07.2019 07:00:00 15,6 1,7 5 3 - - NW 1015,1 16
20.07.2019 06:00:00 16,1 1,1 9 5 - - NW 1014,6 16
20.07.2019 05:00:00 17,2 1,1 16 9 - - NW 1013,9 16
20.07.2019 04:00:00 17,8 0,0 8 4 - - W 1013,7 16
20.07.2019 03:00:00 16,7 -0,6 9 5 - - WNW 1013,6 16
20.07.2019 02:00:00 17,2 1,1 8 4 - - - 1013,5 16
20.07.2019 01:00:00 20,0 0,0 15 8 - - N 1013,1 16
20.07.2019 00:00:00 22,2 0,0 26 14 - - NNW 1012,2 16
19.07.2019 23:00:00 22,2 0,6 21 11 - - NNW 1012,6 16
19.07.2019 22:00:00 20,0 2,8 13 7 - - NNW 1012,5 16
19.07.2019 21:00:00 26,7 -1,1 5 3 - - N 1011,6 16
19.07.2019 20:00:00 28,9 -2,8 5 3 - - N 1011,6 16
19.07.2019 19:00:00 29,4 -3,9 8 4 - - - 1011,7 16
19.07.2019 18:00:00 28,9 -3,9 9 5 - - - 1012,2 16
19.07.2019 17:00:00 29,4 -7,2 16 9 - - NNW 1012,8 16
19.07.2019 16:00:00 28,9 -6,1 13 7 - - N 1012,8 16
19.07.2019 15:00:00 28,3 -3,3 11 6 - - NNW 1013,3 16
19.07.2019 14:00:00 27,2 -3,3 13 7 - - N 1013,8 16
19.07.2019 13:00:00 25,6 -3,3 16 9 - - NW 1014,6 16
19.07.2019 12:00:00 24,4 -0,6 22 12 - - NW 1015,1 16
19.07.2019 11:00:00 22,8 1,1 28 15 48 26 NW 1015,3 16
19.07.2019 10:00:00 20,6 2,2 34 18 54 29 NNW 1015,6 16
19.07.2019 09:00:00 18,3 3,9 31 17 50 27 NW 1015,0 16
19.07.2019 08:00:00 16,7 3,9 26 14 - - WNW 1014,5 16
19.07.2019 07:00:00 15,6 3,3 15 8 - - NW 1013,9 15
19.07.2019 06:00:00 16,1 2,8 15 8 - - W 1012,9 16
19.07.2019 05:00:00 17,2 2,2 28 15 52 28 NW 1012,1 16
19.07.2019 04:00:00 18,9 0,6 29 16 57 31 NNW 1010,8 16
19.07.2019 03:00:00 20,0 -1,7 41 22 55 30 NNW 1009,9 16
19.07.2019 02:00:00 21,1 -2,2 31 17 - - NNW 1009,6 16
19.07.2019 01:00:00 21,7 -1,7 26 14 52 28 NNW 1008,9 16
19.07.2019 00:00:00 23,3 2,2 35 19 52 28 NNW 1008,4 16
18.07.2019 23:00:00 24,4 5,6 29 16 - - NNW 1008,2 16
18.07.2019 22:00:00 26,1 7,2 24 13 - - NNW 1007,3 16
18.07.2019 21:00:00 28,9 8,9 11 6 - - NNW 1006,8 16
18.07.2019 20:00:00 31,7 8,3 8 4 - - ENE 1006,6 16
18.07.2019 19:00:00 31,7 7,8 5 3 - - SSW 1007,0 16
18.07.2019 18:00:00 31,7 8,3 0 0 - - N 1007,7 16
18.07.2019 17:00:00 31,7 8,9 9 5 - - - 1008,6 16
18.07.2019 16:00:00 32,2 6,7 16 9 - - W 1009,2 16
18.07.2019 15:00:00 30,6 7,8 16 9 - - W 1010,0 16
18.07.2019 14:00:00 29,4 8,3 11 6 - - W 1010,8 16
18.07.2019 13:00:00 28,9 8,9 16 9 - - W 1011,9 16
18.07.2019 12:00:00 27,8 8,9 15 8 - - WSW 1012,6 16
18.07.2019 11:00:00 26,1 8,9 13 7 - - NW 1012,9 16
18.07.2019 10:00:00 25,0 11,1 11 6 - - W 1013,0 16
18.07.2019 09:00:00 22,8 11,1 11 6 - - WSW 1012,7 16
18.07.2019 08:00:00 19,4 11,1 11 6 - - WSW 1012,5 16
18.07.2019 07:00:00 17,8 10,6 13 7 - - WSW 1011,9 16
18.07.2019 06:00:00 19,4 10,0 18 10 - - WSW 1011,1 16
18.07.2019 05:00:00 20,0 10,0 11 6 - - WSW 1010,4 16
18.07.2019 04:00:00 21,7 10,0 9 5 - - WNW 1010,0 16
18.07.2019 03:00:00 22,2 10,0 13 7 - - WNW 1009,8 16
18.07.2019 02:00:00 23,3 9,4 18 10 - - NNW 1009,1 16
18.07.2019 01:00:00 23,9 8,9 13 7 - - NNW 1008,5 16
18.07.2019 00:00:00 25,0 8,3 13 7 - - NNW 1008,1 16
17.07.2019 23:00:00 26,7 7,8 22 12 - - NNW 1007,9 16
17.07.2019 22:00:00 27,2 7,2 18 10 - - NW 1007,2 16
17.07.2019 21:00:00 30,6 7,8 8 4 - - NW 1006,8 16
17.07.2019 20:00:00 32,8 5,6 9 5 - - WSW 1006,7 16
17.07.2019 19:00:00 33,3 4,4 16 9 - - WSW 1007,1 16
17.07.2019 18:00:00 34,4 3,9 16 9 - - WSW 1007,6 16
17.07.2019 17:00:00 32,8 7,8 9 5 - - - 1008,3 16
17.07.2019 16:00:00 31,7 7,8 0 0 - - N 1009,2 16
17.07.2019 15:00:00 31,7 8,3 0 0 - - N 1009,9 16
17.07.2019 14:00:00 30,0 7,8 5 3 - - - 1010,5 16

tt = temperature
td = dewpoint
ff = wind speed
fx = gusts
dd = wind direction
ppp = reduced air pressure
vv = visibility

Next stations